Chariton, IA

6:58 PM CDT on April 29, 2017 (GMT -0500)
Chariton Municipal

Weather History for KCNC - December, 2012

Change the Weather History Date:

Monday, December 10, 2012

  Actual Average Record
Temperature  
Mean Temperature 24 °F -  
Max Temperature 32 °F 37 °F 61 °F (1979)
Min Temperature 17 °F 18 °F -5 °F (1972)
Degree Days  
Heating Degree Days 40    
Moisture  
Dew Point 14 °F    
Average Humidity 67    
Maximum Humidity 80    
Minimum Humidity 51    
Precipitation  
Precipitation 0.00 in - - ()
Sea Level Pressure  
Sea Level Pressure 29.98 in    
Wind  
Wind Speed 13 mph (West)    
Max Wind Speed 20 mph    
Max Gust Speed 29 mph    
Visibility 10 miles    
Events      
Averages and records for this station are not official NWS values.
T = Trace of Precipitation, MM = Missing Value Source: NWS Daily Summary

Daily Weather History Graph

Daily Weather History Graph

Search for Another Location

Airport or City:

Trip Planner

Search our weather history database for the weather conditions in past years. The results will help you decide how hot, cold, wet, or windy it might be!

Date:

Astronomy

Dec. 10, 2012 Rise Set
Actual Time 7:27 AM CST 4:45 PM CST
Civil Twilight 6:56 AM CST 5:16 PM CST
Nautical Twilight 6:22 AM CST 5:50 PM CST
Astronomical Twilight 5:48 AM CST 6:24 PM CST
Moon 4:11 AM CST (12/10) 2:35 PM CST (12/10)
Length of Visible Light 10h 19m
Length of Day
9h 17m
Waning Crescent, 10% of the Moon is Illuminated
Dec 10
Waning Crescent
Dec 13
New
Dec 19
First Quarter
Dec 28
Full
Jan 4
Last Quarter

Hourly Weather History & Observations

Time (CST) Temp. Windchill Dew Point Humidity Pressure Visibility Wind Dir Wind Speed Gust Speed Precip Events Conditions
12:15 AM 23.0 °F 9.2 °F 15.8 °F 74% 29.97 in 10.0 mi WNW 17.3 mph - N/A   Overcast
12:35 AM 21.2 °F 6.4 °F 15.8 °F 80% 29.96 in 10.0 mi WNW 18.4 mph 23.0 mph N/A   Overcast
12:55 AM 21.2 °F 6.8 °F 15.8 °F 80% 29.96 in 10.0 mi WNW 17.3 mph - N/A   Overcast
1:15 AM 21.2 °F 7.3 °F 15.8 °F 80% 29.96 in 10.0 mi WNW 16.1 mph 20.7 mph N/A   Overcast
1:35 AM 21.2 °F 7.8 °F 15.8 °F 80% 29.95 in 10.0 mi WNW 15.0 mph 24.2 mph N/A   Overcast
1:55 AM 21.2 °F 7.3 °F 15.8 °F 80% 29.96 in 10.0 mi WNW 16.1 mph 20.7 mph N/A   Overcast
2:15 AM 21.2 °F 7.8 °F 15.8 °F 80% 29.97 in 10.0 mi WNW 15.0 mph 18.4 mph N/A   Overcast
2:55 AM 21.2 °F 8.3 °F 15.8 °F 80% 29.96 in 10.0 mi WNW 13.8 mph - N/A   Overcast
3:15 AM 21.2 °F 8.9 °F 15.8 °F 80% 29.97 in 10.0 mi WNW 12.7 mph 25.3 mph N/A   Overcast
3:35 AM 21.2 °F 6.4 °F 14.0 °F 74% 29.97 in 10.0 mi NW 18.4 mph 28.8 mph N/A   Overcast
3:55 AM 21.2 °F 7.8 °F 15.8 °F 80% 29.97 in 10.0 mi NW 15.0 mph 21.9 mph N/A   Overcast
4:15 AM 21.2 °F 7.8 °F 15.8 °F 80% 29.96 in 10.0 mi NW 15.0 mph 20.7 mph N/A   Overcast
4:35 AM 21.2 °F 6.0 °F 14.0 °F 74% 29.96 in 10.0 mi NW 19.6 mph 26.5 mph N/A   Overcast
4:55 AM 21.2 °F 6.0 °F 14.0 °F 74% 29.95 in 10.0 mi NW 19.6 mph 27.6 mph N/A   Overcast
5:15 AM 21.2 °F 7.8 °F 14.0 °F 74% 29.96 in 10.0 mi WNW 15.0 mph 21.9 mph N/A   Overcast
5:35 AM 21.2 °F 7.3 °F 12.2 °F 68% 29.96 in 10.0 mi NW 16.1 mph 20.7 mph N/A   Overcast
6:15 AM 21.2 °F 8.9 °F 12.2 °F 68% 29.98 in 10.0 mi WNW 12.7 mph - N/A   Overcast
6:35 AM 21.2 °F 8.9 °F 12.2 °F 68% 29.98 in 10.0 mi WNW 12.7 mph - N/A   Overcast
6:55 AM 21.2 °F 10.1 °F 12.2 °F 68% 29.99 in 10.0 mi WNW 10.4 mph 13.8 mph N/A   Overcast
7:15 AM 21.2 °F 10.1 °F 14.0 °F 74% 29.99 in 10.0 mi WNW 10.4 mph - N/A   Overcast
7:35 AM 21.2 °F 10.1 °F 14.0 °F 74% 29.99 in 10.0 mi WNW 10.4 mph - N/A   Overcast
7:55 AM 21.2 °F 8.9 °F 14.0 °F 74% 30.00 in 10.0 mi West 12.7 mph - N/A   Overcast
8:15 AM 21.2 °F 7.3 °F 14.0 °F 74% 30.00 in 10.0 mi West 16.1 mph - N/A   Overcast
8:35 AM 21.2 °F 7.8 °F 14.0 °F 74% 30.01 in 10.0 mi WNW 15.0 mph - N/A   Overcast
8:55 AM 21.2 °F 6.8 °F 14.0 °F 74% 30.01 in 10.0 mi WNW 17.3 mph - N/A   Overcast
9:15 AM 21.2 °F 8.9 °F 14.0 °F 74% 30.01 in 10.0 mi WNW 12.7 mph - N/A   Overcast
9:35 AM 21.2 °F 7.3 °F 14.0 °F 74% 30.01 in 10.0 mi West 16.1 mph - N/A   Overcast
9:55 AM 23.0 °F 10.6 °F 15.8 °F 74% 30.01 in 10.0 mi WNW 13.8 mph - N/A   Overcast
10:15 AM 23.0 °F 11.1 °F 15.8 °F 74% 30.01 in 10.0 mi West 12.7 mph 18.4 mph N/A   Overcast
10:35 AM 24.8 °F 13.4 °F 15.8 °F 69% 30.01 in 10.0 mi WNW 12.7 mph - N/A   Overcast
10:55 AM 24.8 °F 12.9 °F 15.8 °F 69% 30.01 in 10.0 mi West 13.8 mph - N/A   Mostly Cloudy
11:15 AM 26.6 °F 15.2 °F 15.8 °F 64% 30.00 in 10.0 mi West 13.8 mph - N/A   Scattered Clouds
11:35 AM 26.6 °F 16.2 °F 15.8 °F 64% 30.00 in 10.0 mi WNW 11.5 mph - N/A   Clear
11:55 AM 28.4 °F 17.5 °F 15.8 °F 59% 30.00 in 10.0 mi West 13.8 mph - N/A   Clear
12:15 PM 28.4 °F 17.5 °F 15.8 °F 59% 29.99 in 10.0 mi West 13.8 mph - N/A   Clear
12:35 PM 28.4 °F 18.0 °F 15.8 °F 59% 29.98 in 10.0 mi WNW 12.7 mph - N/A   Clear
12:55 PM 28.4 °F 17.5 °F 15.8 °F 59% 29.97 in 10.0 mi West 13.8 mph - N/A   Clear
1:15 PM 30.2 °F 19.8 °F 17.6 °F 60% 29.97 in 10.0 mi West 13.8 mph - N/A   Clear
1:35 PM 30.2 °F 20.8 °F 17.6 °F 60% 29.96 in 10.0 mi West 11.5 mph - N/A   Clear
1:55 PM 30.2 °F 20.2 °F 17.6 °F 60% 29.96 in 10.0 mi WNW 12.7 mph - N/A   Clear
2:15 PM 32.0 °F 23.6 °F 17.6 °F 55% 29.95 in 10.0 mi West 10.4 mph - N/A   Clear
2:35 PM 32.0 °F 24.2 °F 17.6 °F 55% 29.95 in 10.0 mi West 9.2 mph - N/A   Clear
2:55 PM 32.0 °F 23.0 °F 17.6 °F 55% 29.96 in 10.0 mi WNW 11.5 mph - N/A   Clear
3:15 PM 30.2 °F 20.2 °F 17.6 °F 60% 29.96 in 10.0 mi West 12.7 mph - N/A   Clear
3:35 PM 30.2 °F 21.3 °F 17.6 °F 60% 29.96 in 10.0 mi West 10.4 mph - N/A   Clear
3:55 PM 30.2 °F 22.6 °F 15.8 °F 55% 29.96 in 10.0 mi West 8.1 mph - N/A   Clear
4:15 PM 30.2 °F 22.6 °F 15.8 °F 55% 29.96 in 10.0 mi West 8.1 mph - N/A   Clear
4:35 PM 28.4 °F 21.2 °F 14.0 °F 55% 29.96 in 10.0 mi West 6.9 mph - N/A   Clear
4:55 PM 26.6 °F 20.0 °F 12.2 °F 55% 29.97 in 10.0 mi West 5.8 mph - N/A   Clear
5:15 PM 26.6 °F 22.6 °F 12.2 °F 55% 29.97 in 10.0 mi WSW 3.5 mph - N/A   Clear
5:35 PM 26.6 °F 21.2 °F 12.2 °F 55% 29.98 in 10.0 mi WSW 4.6 mph - N/A   Clear
5:55 PM 26.6 °F 22.6 °F 10.4 °F 51% 29.97 in 10.0 mi WSW 3.5 mph - N/A   Clear
6:15 PM 26.6 °F 22.6 °F 10.4 °F 51% 29.97 in 10.0 mi SW 3.5 mph - N/A   Clear
6:35 PM 24.8 °F 20.5 °F 10.4 °F 54% 29.97 in 10.0 mi SSW 3.5 mph - N/A   Clear
6:55 PM 24.8 °F - 10.4 °F 54% 29.98 in 10.0 mi Calm Calm - N/A   Clear
7:15 PM 21.2 °F 14.9 °F 10.4 °F 63% 29.98 in 10.0 mi SW 4.6 mph - N/A   Clear
7:35 PM 23.0 °F 17.0 °F 10.4 °F 59% 29.99 in 10.0 mi SW 4.6 mph - N/A   Clear
7:55 PM 21.2 °F 14.9 °F 10.4 °F 63% 29.99 in 10.0 mi SSW 4.6 mph - N/A   Clear
8:15 PM 21.2 °F 14.9 °F 10.4 °F 63% 29.99 in 10.0 mi SSW 4.6 mph - N/A   Clear
8:55 PM 21.2 °F 14.9 °F 8.6 °F 58% 29.99 in 10.0 mi SSW 4.6 mph - N/A   Clear
9:15 PM 19.4 °F 12.8 °F 10.4 °F 68% 29.99 in 10.0 mi SSW 4.6 mph - N/A   Clear
9:35 PM 17.6 °F 8.2 °F 8.6 °F 68% 29.98 in 10.0 mi South 6.9 mph - N/A   Clear
9:55 PM 19.4 °F 12.8 °F 10.4 °F 68% 29.99 in 10.0 mi SW 4.6 mph - N/A   Clear
10:15 PM 19.4 °F 11.5 °F 8.6 °F 63% 29.99 in 10.0 mi SSW 5.8 mph - N/A   Clear
10:35 PM 17.6 °F 8.2 °F 8.6 °F 68% 29.98 in 10.0 mi SSW 6.9 mph - N/A   Clear
10:55 PM 19.4 °F 10.4 °F 8.6 °F 63% 29.98 in 10.0 mi SSW 6.9 mph - N/A   Clear
11:15 PM 17.6 °F 8.2 °F 8.6 °F 68% 29.98 in 10.0 mi SSW 6.9 mph - N/A   Clear
11:35 PM 17.6 °F 9.3 °F 8.6 °F 68% 29.98 in 10.0 mi SSW 5.8 mph - N/A   Clear
11:55 PM 17.6 °F 7.3 °F 8.6 °F 68% 29.98 in 10.0 mi South 8.1 mph - N/A   Clear